Location: Newark
(51.8833°N, 3.4333°W)
Time: 14:38:01
(UTC+00:00)

X-37B - Visible Passes

Search period start: 27 September 2020 00:00
Search period end: 07 October 2020 00:00
Orbit: 386 x 387 km, 45.0° (Epoch: 18 September)

Date Brightness Start Highest point End Pass type
(mag) Time Alt. Az. Time Alt. Az. Time Alt. Az.
04 Oct 3.0 18:50:16 10° S 18:51:09 11° SSE 18:51:46 10° SE visible
05 Oct 2.5 19:26:20 10° SSW 19:28:10 18° S 19:28:10 18° S visible
06 Oct 2.8 18:28:26 10° SSW 18:30:19 15° SSE 18:32:14 10° ESE visible
06 Oct 3.2 20:03:42 10° SW 20:04:31 15° SW 20:04:31 15° SW visible
